CW3827 Weather Reports


Display with metric or nautical units.
time (UTC)temp
F
wind
direction
speed
MPH
gust
MPH
rain 1hr
in
rain 24hr
in
rain mn
in
humidity
%
barometer
mb
20260506193009 63 75 14.0 25.0 0.00 0.00 0.00 22 1017.7
20260506191508 64 56 20.0 26.0 0.00 0.00 0.00 21 1017.8
20260506190006 63 81 12.0 35.0 0.00 0.00 0.00 23 1018.0
20260506184504 63 89 15.0 25.0 0.00 0.00 0.00 24 1018.2
20260506183005 62 75 16.0 27.0 0.00 0.00 0.00 22 1018.4
20260506181503 62 70 19.0 27.0 0.00 0.00 0.00 23 1018.6
20260506180012 61 70 14.0 26.0 0.00 0.00 0.00 25 1018.7
20260506174508 61 119 16.0 23.0 0.00 0.00 0.00 23 1018.8
20260506173009 61 88 16.0 25.0 0.00 0.00 0.00 25 1018.9
20260506171504 60 107 14.0 26.0 0.00 0.00 0.00 27 1018.8
20260506170006 59 75 18.0 24.0 0.00 0.00 0.00 28 1018.8
20260506164505 59 34 16.0 26.0 0.00 0.00 0.00 27 1018.8
20260506163014 58 51 15.0 23.0 0.00 0.00 0.00 29 1018.6
20260506161512 58 86 15.0 27.0 0.00 0.00 0.00 31 1018.6
20260506160007 57 47 16.0 23.0 0.00 0.00 0.00 33 1018.7
20260506154508 56 54 15.0 22.0 0.00 0.00 0.00 37 1018.7
20260506153009 55 77 14.0 20.0 0.00 0.00 0.00 41 1018.6
20260506151520 55 59 12.0 18.0 0.00 0.00 0.00 43 1018.7
20260506150019 54 71 10.0 16.0 0.00 0.00 0.00 45 1018.6
20260506144520 53 119 9.0 17.0 0.00 0.00 0.00 48 1018.8
20260506143012 53 74 10.0 19.0 0.00 0.00 0.00 50 1018.6
20260506141510 52 92 11.0 15.0 0.00 0.00 0.00 52 1018.6
20260506140007 52 77 8.0 12.0 0.00 0.00 0.00 53 1018.5
20260506134522 52 103 0.0 7.0 0.00 0.00 0.00 52 1018.4
20260506133020 52 133 0.0 4.0 0.00 0.00 0.00 53 1018.2
20260506131522 49 41 0.0 3.0 0.00 0.00 0.00 55 1018.0
20260506130020 48 16 6.0 8.0 0.00 0.00 0.00 57 1018.0
20260506124510 46 30 0.0 3.0 0.00 0.00 0.00 59 1017.8
20260506123008 44 346 6.0 6.0 0.00 0.00 0.00 63 1017.7
20260506121528 45 349 0.0 0.0 0.00 0.00 0.00 63 1017.3
20260506120029 46 53 0.0 0.0 0.00 0.00 0.00 62 1017.3
20260506114521 46 54 0.0 0.0 0.00 0.00 0.00 62 1017.3
20260506113022 47 56 0.0 0.0 0.00 0.00 0.00 61 1017.4
20260506111515 47 56 0.0 0.0 0.00 0.00 0.00 60 1017.2
20260506110014 48 51 0.0 7.0 0.00 0.00 0.00 59 1017.0
20260506104527 49 61 0.0 0.0 0.00 0.00 0.00 57 1017.0
20260506103006 50 65 4.0 8.0 0.00 0.00 0.00 56 1016.8
20260506101523 50 46 0.0 0.0 0.00 0.00 0.00 56 1016.9
20260506100020 50 67 0.0 0.0 0.00 0.00 0.00 56 1016.7
20260506094520 50 49 0.0 0.0 0.00 0.00 0.00 57 1016.7
20260506093015 50 44 0.0 0.0 0.00 0.00 0.00 57 1016.5
20260506091512 50 44 0.0 0.0 0.00 0.00 0.00 57 1016.4
20260506090027 50 44 0.0 0.0 0.00 0.00 0.00 57 1016.3
20260506084534 50 44 0.0 0.0 0.00 0.00 0.00 58 1016.2
20260506083023 51 75 3.0 6.0 0.00 0.00 0.00 56 1016.2
20260506081521 51 74 4.0 7.0 0.00 0.00 0.00 56 1016.2
20260506073028 53 68 4.0 12.0 0.00 0.00 0.00 50 1015.9
20260506071529 53 72 3.0 14.0 0.00 0.00 0.00 50 1015.9
20260506061525 55 105 6.0 8.0 0.00 0.00 0.00 47 1015.4
20260506044532 54 53 5.0 9.0 0.00 0.00 0.00 47 1015.1
20260506043022 56 60 8.0 13.0 0.00 0.00 0.00 44 1015.0
20260506041517 56 47 8.0 12.0 0.00 0.00 0.00 42 1014.9
20260506040011 57 82 10.0 20.0 0.00 0.00 0.00 40 1014.7
20260506034505 58 70 9.0 18.0 0.00 0.00 0.00 38 1014.5
20260506033005 59 84 13.0 20.0 0.00 0.00 0.00 36 1014.3
20260506031504 60 316 15.0 27.0 0.00 0.00 0.00 34 1014.1
20260506030017 61 294 17.0 28.0 0.00 0.00 0.00 34 1014.0
20260506024518 61 96 14.0 24.0 0.00 0.00 0.00 33 1013.9
20260506023016 61 86 17.0 22.0 0.00 0.00 0.00 34 1013.7
20260506021509 61 61 18.0 28.0 0.00 0.00 0.00 35 1013.6
20260506020004 62 134 17.0 27.0 0.00 0.00 0.00 34 1013.3
20260506014504 62 70 16.0 30.0 0.00 0.00 0.00 35 1013.3
20260506013020 62 55 16.0 29.0 0.00 0.00 0.00 36 1013.2
20260506011535 62 59 23.0 33.0 0.00 0.00 0.00 35 1013.0
20260506010015 62 65 25.0 31.0 0.00 0.00 0.00 35 1012.9
20260506004520 64 105 21.0 37.0 0.00 0.00 0.00 34 1012.7
20260506003008 64 102 19.0 34.0 0.00 0.00 0.00 33 1012.7
20260506001507 65 89 23.0 35.0 0.00 0.00 0.00 31 1012.7
20260506000025 65 81 24.0 34.0 0.00 0.00 0.00 31 1012.7
20260505234517 66 50 25.0 39.0 0.00 0.00 0.00 32 1012.3
20260505233026 66 180 26.0 43.0 0.00 0.00 0.00 32 1012.2
20260505231518 66 77 24.0 40.0 0.00 0.00 0.00 30 1012.3
20260505230009 66 131 31.0 40.0 0.00 0.00 0.00 33 1012.2
20260505224508 66 82 25.0 43.0 0.00 0.00 0.00 34 1012.6
20260505223025 65 106 26.0 41.0 0.00 0.00 0.00 36 1012.7
20260505221522 64 72 22.0 37.0 0.00 0.00 0.00 39 1013.1
20260505220041 64 360 21.0 37.0 0.00 0.00 0.00 41 1013.2
20260505214525 65 57 26.0 38.0 0.00 0.00 0.00 38 1013.3
20260505213019 66 54 26.0 37.0 0.00 0.00 0.00 39 1013.5
20260505211537 64 173 22.0 43.0 0.00 0.00 0.00 43 1013.5
20260505210024 65 90 31.0 43.0 0.00 0.00 0.00 42 1013.5
20260505204525 66 71 26.0 40.0 0.00 0.00 0.00 40 1013.7
20260505203024 65 143 24.0 36.0 0.00 0.00 0.00 42 1014.0
20260505201520 65 55 30.0 41.0 0.00 0.00 0.00 42 1013.8
20260505200015 64 77 29.0 40.0 0.00 0.00 0.00 42 1014.1
20260505194528 64 58 25.0 48.0 0.00 0.00 0.00 42 1014.3